Barcelona, Spain

11:39 AM CEST en Octubre 15, 2018 (GMT +0200)
El Prat

Tiempo Historia de LEBL - Abril, 2018

Change the Weather History Date:

Martes, Abril 17, 2018

  Actual Average Record
Temperature  
Temperatura media 62 ° F -  
Temperatura máxima 72 ° F 65 ° F 72 ° F (2013)
Temperatura mínima 51 ° F 53 ° F 44 ° F (2002)
Degree Days  
Grados día de calefacción 4    
Growing Degree Days 12 (Base 50)    
Moisture  
Punto de rocío 51 ° F    
Average Humidity 68    
Maximum Humidity 94    
Minimum Humidity 40    
Precipitación  
Precipitación 0.00 pul 0.07 pul - ()
Presión al nivel del mar  
Presión al nivel del mar 30.17 pul    
Viento  
Velocidad del viento 7 mph ()    
Velocidad máxima del viento 18 mph    
Max Gust Speed 28 mph    
Visibilidad 10.3 Millas    
Eventos      
Averages and records for this station are not official NWS values.
T = Trace of Precipitation, MM = Missing Value Source: Averaged Metar Reports

Daily Weather History Graph

Daily Weather History Graph

Search for Another Location

Airport or City:

Astronomía

Apr. 17, 2018 Salida Puesta
Hora real 7:09 AM CEST 8:33 PM CEST
Crepúsculo civil 6:40 AM CEST 9:02 PM CEST
Crepúsculo náutico 6:06 AM CEST 9:37 PM CEST
Crepúsculo astronómico 5:29 AM CEST 10:14 PM CEST
Luna 8:18 AM CEST (4/17) 10:13 PM CEST (4/17)
Horas de luz 14h 21m
Horas de luz
13h 24m
Luna nueva, 2% of the Moon is Illuminated
Abr 17
Luna nueva
Abr 22
Cuarto creciente
Abr 30
Luna llena
May 8
Cuarto menguante
May 15
Nueva

Hourly Weather History & Observations

Hora (CEST) Temp. Punto de rocío Humedad Presión Visibilidad Wind Dir Velocidad del viento Velocidad de ráfagas Precip Eventos Condiciones
12:00 AM 53.6 ° F 48.2 ° F 82% 30.09 pul 6.2 mi ONO 3.5 mph - N/A   Parcialmente nublado
12:30 AM 53.6 ° F 50.0 ° F 88% 30.09 pul 6.2 mi Variable 2.3 mph - N/A   Parcialmente nublado
1:00 AM 54 ° F 50 ° F 81% 30.12 pul 14 mi Sin viento Sin viento - -  
1:00 AM 53.6 ° F 50.0 ° F 88% 30.09 pul 6.2 mi Oeste 3.5 mph - N/A   Parcialmente nublado
1:30 AM 53.6 ° F 50.0 ° F 88% 30.12 pul 6.2 mi NO 3.5 mph - N/A   Parcialmente nublado
2:00 AM 53 ° F 49 ° F 80% 30.13 pul 16 mi NO 4.6 mph - -   Nubes dispersas
2:00 AM 51.8 ° F 48.2 ° F 88% 30.12 pul 6.2 mi NO 5.8 mph - N/A   Parcialmente nublado
2:30 AM 53.6 ° F 50.0 ° F 88% 30.12 pul 6.2 mi ONO 3.5 mph - N/A   Parcialmente nublado
3:00 AM 54 ° F 50 ° F 83% 30.14 pul 12 mi Sin viento Sin viento - -  
3:00 AM 53.6 ° F 50.0 ° F 88% 30.12 pul 6.2 mi ONO 3.5 mph - N/A   Parcialmente nublado
3:30 AM 55.4 ° F 51.8 ° F 88% 30.12 pul 6.2 mi Oeste 4.6 mph - N/A   Parcialmente nublado
4:00 AM 55 ° F 51 ° F 80% 30.14 pul 9 mi Sin viento Sin viento - -  
4:00 AM 55.4 ° F 51.8 ° F 88% 30.12 pul 6.2 mi Oeste 5.8 mph - N/A   Parcialmente nublado
4:30 AM 51.8 ° F 50.0 ° F 94% 30.12 pul 6.2 mi ONO 6.9 mph - N/A   Parcialmente nublado
5:00 AM 52 ° F 49 ° F 86% 30.14 pul 12 mi Sin viento Sin viento - -   Nubes dispersas
5:00 AM 51.8 ° F 50.0 ° F 94% 30.12 pul 6.2 mi Oeste 5.8 mph - N/A   Parcialmente nublado
5:30 AM 53.6 ° F 50.0 ° F 88% 30.12 pul 6.2 mi NO 8.1 mph - N/A   Parcialmente nublado
6:00 AM 55 ° F 52 ° F 86% 30.14 pul 12 mi NNO 6.9 mph - -  
6:00 AM 53.6 ° F 51.8 ° F 94% 30.12 pul 6.2 mi NO 10.4 mph - N/A   Parcialmente nublado
6:30 AM 57.2 ° F 51.8 ° F 82% 30.12 pul 6.2 mi ONO 8.1 mph - N/A   Parcialmente nublado
7:00 AM 57.2 ° F 51.8 ° F 82% 30.12 pul - NO 9.2 mph - N/A   Despejado
7:30 AM 57.2 ° F 51.8 ° F 82% 30.15 pul - NO 11.5 mph - N/A   Despejado
8:00 AM 58 ° F 52 ° F 74% 30.17 pul 16 mi NNO 8.1 mph - -   Despejado
8:00 AM 57.2 ° F 51.8 ° F 82% 30.15 pul - NO 8.1 mph - N/A   Despejado
8:30 AM 59.0 ° F 51.8 ° F 77% 30.15 pul - NO 9.2 mph - N/A   Despejado
9:00 AM 61 ° F 53 ° F 67% 30.19 pul 15 mi Norte 10.4 mph - -  
9:00 AM 60.8 ° F 51.8 ° F 72% 30.18 pul - NO 13.8 mph 27.6 mph N/A   Despejado
9:30 AM 60.8 ° F 53.6 ° F 77% 30.18 pul - NNO 16.1 mph - N/A   Despejado
10:00 AM 64 ° F 53 ° F 58% 30.21 pul 19 mi Norte 15.0 mph - -  
10:00 AM 62.6 ° F 51.8 ° F 68% 30.18 pul - NO 16.1 mph 27.6 mph N/A   Despejado
10:30 AM 64.4 ° F 51.8 ° F 64% 30.18 pul - NNO 13.8 mph 27.6 mph N/A   Despejado
11:00 AM 67 ° F 53 ° F 52% 30.22 pul 9 mi Norte 13.8 mph - -   Despejado
11:00 AM 64.4 ° F 51.8 ° F 64% 30.21 pul - NNO 11.5 mph 23.0 mph N/A   Despejado
11:30 AM 66.2 ° F 53.6 ° F 64% 30.21 pul - NO 11.5 mph - N/A   Despejado
12:00 PM 70 ° F 53 ° F 44% 30.22 pul 19 mi Norte 10.4 mph - -  
12:00 PM 69.8 ° F 53.6 ° F 56% 30.21 pul 6.2 mi NO 8.1 mph - N/A   Parcialmente nublado
12:30 PM 69.8 ° F 53.6 ° F 56% 30.21 pul 6.2 mi ONO 8.1 mph - N/A   Parcialmente nublado
1:00 PM 70 ° F 55 ° F 48% 30.21 pul 16 mi SO 9.2 mph - -  
1:00 PM 68.0 ° F 55.4 ° F 64% 30.18 pul 6.2 mi SSE 5.8 mph - N/A   Parcialmente nublado
1:30 PM 66.2 ° F 53.6 ° F 64% 30.21 pul 6.2 mi SSO 9.2 mph - N/A   Parcialmente nublado
2:00 PM 67 ° F 55 ° F 56% 30.21 pul 19 mi SO 13.8 mph - -   Nubes dispersas
2:00 PM 64.4 ° F 53.6 ° F 68% 30.18 pul 6.2 mi SSO 12.7 mph - N/A   Parcialmente nublado
2:30 PM 66.2 ° F 53.6 ° F 64% 30.18 pul 6.2 mi SO 15.0 mph - N/A   Parcialmente nublado
3:00 PM 66 ° F 52 ° F 52% 30.21 pul 19 mi SO 15.0 mph - -   Nubes dispersas
3:00 PM 64.4 ° F 51.8 ° F 64% 30.21 pul 6.2 mi SSO 13.8 mph - N/A   Parcialmente nublado
3:30 PM 66.2 ° F 51.8 ° F 60% 30.18 pul 6.2 mi SO 12.7 mph - N/A   Parcialmente nublado
4:00 PM 68 ° F 51 ° F 43% 30.20 pul 19 mi OSO 13.8 mph - -  
4:00 PM 66.2 ° F 51.8 ° F 60% 30.18 pul 6.2 mi SO 12.7 mph - N/A   Parcialmente nublado
4:30 PM 66.2 ° F 50.0 ° F 56% 30.18 pul 6.2 mi SO 13.8 mph - N/A   Parcialmente nublado
5:00 PM 68 ° F 49 ° F 40% 30.19 pul 19 mi SO 13.8 mph - -   Nubes dispersas
5:00 PM 66.2 ° F 50.0 ° F 56% 30.18 pul 6.2 mi SO 13.8 mph - N/A   Parcialmente nublado
5:30 PM 66.2 ° F 51.8 ° F 60% 30.18 pul 6.2 mi SO 12.7 mph - N/A   Parcialmente nublado
6:00 PM 67 ° F 50 ° F 44% 30.19 pul 19 mi OSO 15.0 mph - -  
6:00 PM 66.2 ° F 50.0 ° F 56% 30.18 pul 6.2 mi SO 15.0 mph - N/A   Parcialmente nublado
6:30 PM 66.2 ° F 50.0 ° F 56% 30.18 pul 6.2 mi SO 15.0 mph - N/A   Parcialmente nublado
7:00 PM 66 ° F 51 ° F 49% 30.19 pul 19 mi SO 17.3 mph - -  
7:00 PM 64.4 ° F 51.8 ° F 64% 30.18 pul 6.2 mi SSO 18.4 mph - N/A   Parcialmente nublado
7:30 PM 64.4 ° F 50.0 ° F 59% 30.18 pul 6.2 mi SO 16.1 mph - N/A   Parcialmente nublado
8:00 PM 66 ° F 49 ° F 44% 30.20 pul 19 mi OSO 15.0 mph - -  
8:00 PM 64.4 ° F 48.2 ° F 56% 30.18 pul - SO 12.7 mph - N/A   Despejado
8:30 PM 64.4 ° F 48.2 ° F 56% 30.21 pul - SO 10.4 mph - N/A   Despejado
9:00 PM 64 ° F 49 ° F 47% 30.22 pul 19 mi OSO 9.2 mph - -  
9:00 PM 62.6 ° F 48.2 ° F 59% 30.21 pul - SO 11.5 mph - N/A   Despejado
9:30 PM 60.8 ° F 50.0 ° F 68% 30.21 pul - OSO 9.2 mph - N/A   Despejado
10:00 PM 62 ° F 49 ° F 54% 30.25 pul 19 mi OSO 5.8 mph - -  
10:00 PM 60.8 ° F 50.0 ° F 68% 30.24 pul - SO 8.1 mph - N/A   Despejado
10:30 PM 60.8 ° F 50.0 ° F 68% 30.24 pul - Oeste 5.8 mph - N/A   Despejado
11:00 PM 60.8 ° F 51.8 ° F 72% 30.24 pul - OSO 3.5 mph - N/A   Despejado
11:30 PM 59.0 ° F 51.8 ° F 77% 30.24 pul - OSO 4.6 mph - N/A   Despejado